CZ-6A DEB, 61462

Orbit data source: Space-Track

CZ-6A DEB, 61462 is space debris in LEO originally from a launch on Tue, 06 Aug 2024 UTC launched from the Taiyaun Space Center, China (TSC). Debris objects in space refer to the collection of defunct objects orbiting the Earth. Examples of debris include non-operational satellites, rocket bodies, and fragments generated from explosions, collisions, or faulty payload assembly.

Loading next visibility...
Identifier
61462, 2024-140ZU
Orbit
LEO
Country
Flag of CNCN / PRC
Related business
Manufacturer
SAST
Mission
Spacecraft
Bus & Motor
Unknown
Mass
Unknown
Launch date (UTC)
2024-08-06 (2 years ago)
Launch vehicle
Unknown
Launch site
Taiyaun Space Center, China (TSC)
Object type
Payload
Rocket body
Debris
Shape & HBR
Unknown shape, 0.1 m
Radar Cross Section
Small (<0.1 m²)

Expand to show TLE details & history
Last TLE update: 13 hours ago

TLE from 13 hours ago
0 CZ-6A DEB
1 61462U 24140ZU  26171.30097054  .00003119  00000-0  11810-2 0  9992
2 61462  89.1164 282.9747 0077232 214.3382 145.2809 14.29353581 92048
Epoch: 2026-06-20T07:13Z
TLE epoch observation values (Epoch: 2026-06-20T07:13:23.854Z)
Latitude
-0.00001°
Longitude
-93.89225°
Altitude
842.635 km
Speed
7.408 km/s
True Right ascension
18h 51m 53s
True Declination
0° 00' 00"
Sunlit
Object was in full shadow at epoch
Visualization orbit readout
Latitude
Unknown
Longitude
Unknown
Altitude
Unknown
Speed
Unknown
Apparent Right ascension
Unknown
Apparent Declination
Unknown
Sunlit
N/A
Visualization observer readout
Local Sidereal Time
07:22:03
Azimuth
Unknown
Elevation
Unknown
Doppler factor
Unknown
Orbital elements
Apogee altitude
846.197 km
Perigee altitude
735.462 km
Semi-major axis
7,168.966 km
Eccentricity
0.00772
Inclination
89.1164°
RAAN
282.9747°
Arg. of periapsis
214.3382°
True anomaly
145.78099°
Mean anomaly
145.2809°
Eccentric anomaly
145.53134°
Mean motion
3.57568 °/min
Orbital period
100.68 mins
BSTAR
0.001181
Loading maneuver chart data...
Computing Atmospheric mass density...
Loading historical data...
Loading historical data...
Loading historical data...
Loading historical data...
Loading historical data...
Loading historical data...
Loading historical data...

Documentation

Showing up to 5 results
|